RH
24 23 22 20 20 19 18 18 17 16 16 15 15 14 14 13 13 13 13 12 12 11 10 10 9 9 9 9 10 10 10 10 10 10 10 10 10 9 9 9 9 9 8 8 8 8 8 8 8 8 8 8
21 20 19 18 17 17 16 15 14 14 13 13 12 12 12 12 12 12 11 11 10 10 10 10 10 10 10 10 10 10 10 9 9 9 8 8 8 8 8 8 7 7 7 7 7 7 7 7 7 8 8 8
18 17 16 15 15 14 14 13 13 13 12 12 12 12 12 12 11 11 11 10 10 10 10 11 10 10 10 9 9 9 9 8 8 8 8 8 7 8 7 7 7 7 7 7 7 7 8 8 8 8 9 9
16 15 14 13 13 12 12 12 12 12 12 12 12 12 12 11 11 11 11 10 11 10 10 10 9 9 9 9 9 9 9 9 9 9 9 9 9 9 8 8 8 8 7 7 7 7 8 8 9 9 9 10
15 14 13 12 12 12 11 12 12 12 12 12 12 11 11 11 10 10 10 10 10 10 10 10 10 10 10 10 10 10 10 11 11 11 12 12 12 12 12 11 11 10 10 9 8 8 8 8 9 9 9 10
15 14 14 13 12 12 11 11 11 11 11 11 10 10 10 9 9 9 9 9 9 10 10 10 10 10 10 10 11 11 13 14 15 15 16 16 16 15 15 14 14 13 13 12 11 10 10 9 9 9 10 11
16 16 15 14 13 12 11 11 10 10 10 9 9 9 9 9 10 10 11 11 11 11 11 12 12 12 12 12 13 14 15 17 19 20 20 19 19 18 17 17 16 16 15 14 13 12 12 11 10 10 11 12
18 18 17 15 13 12 11 10 10 10 9 10 10 11 12 12 12 12 11 11 11 11 11 11 11 12 13 14 15 16 17 20 23 24 24 22 21 20 19 18 18 18 17 17 16 14 13 12 12 12 12 13
20 19 18 15 13 11 11 10 10 10 11 12 13 14 13 12 11 11 12 12 12 12 12 12 12 13 13 13 15 17 20 23 26 26 25 24 23 22 21 21 22 22 22 21 20 18 15 13 12 12 13 15
21 20 17 14 13 12 12 11 11 12 14 14 14 14 13 12 14 17 18 17 17 17 16 16 16 16 16 16 17 19 22 24 26 26 25 25 24 23 22 22 23 23 23 23 22 20 17 14 13 15 18 22
21 18 15 14 14 13 12 12 13 16 17 16 16 16 16 18 21 24 22 19 20 22 22 21 20 19 18 17 16 16 19 22 23 22 22 22 22 21 21 22 22 23 24 24 24 22 20 18 19 22 25 27
20 17 15 15 15 14 13 14 18 21 20 17 19 20 22 24 25 27 24 20 23 26 27 26 24 22 21 19 16 14 14 16 18 19 20 20 19 19 19 20 21 21 22 23 23 22 22 23 24 25 27 28
19 17 16 15 15 15 15 18 23 25 21 20 22 25 26 25 26 30 28 24 27 31 32 31 29 27 24 22 20 17 15 14 15 16 17 18 17 17 18 19 19 20 20 21 21 22 22 22 23 24 24 24
19 16 16 16 17 18 18 21 26 26 23 24 26 27 26 24 27 31 31 30 32 36 38 38 36 34 30 28 25 23 20 18 17 16 16 16 16 17 19 20 20 19 19 20 20 20 20 21 22 22 23 23
18 16 16 17 19 20 20 23 26 25 23 24 26 26 24 25 29 33 35 36 39 43 45 45 44 41 38 36 33 30 26 23 21 20 19 18 19 20 20 20 20 18 17 18 18 19 20 21 23 25 27 28
18 17 16 17 19 21 23 25 26 24 22 24 26 26 26 28 33 37 42 43 46 51 52 51 50 47 45 43 41 39 35 30 26 23 22 21 22 22 20 20 19 18 17 18 19 20 21 24 28 31 34 36
19 18 19 20 21 24 25 27 27 25 25 27 28 29 32 37 40 45 48 50 54 57 57 57 56 53 52 50 46 45 43 40 34 28 25 23 22 21 19 19 18 18 18 19 21 21 23 27 31 35 39 43
23 23 25 26 26 26 26 27 27 28 30 31 32 37 43 45 47 51 54 57 60 60 60 62 61 59 59 57 54 52 50 47 43 38 31 27 24 23 21 21 20 20 20 21 22 23 24 28 32 36 40 43
27 29 30 29 26 25 25 27 30 34 37 35 37 46 50 50 53 58 60 62 62 61 64 67 66 65 64 63 62 60 57 52 48 43 38 33 29 27 26 26 26 25 24 23 23 24 25 27 31 35 39 43
31 32 32 29 25 25 28 33 36 39 39 35 43 52 52 54 61 67 68 67 65 66 71 72 72 72 71 68 67 64 60 54 48 42 38 36 33 31 30 29 28 26 24 24 24 24 26 29 32 37 43 46
31 32 32 28 25 29 34 38 38 39 38 38 50 55 50 54 64 71 72 69 68 71 75 74 75 76 75 71 67 62 58 55 48 41 36 33 31 29 28 26 25 25 25 25 25 25 29 35 38 43 47 48
29 30 30 30 32 37 40 42 41 43 45 49 59 57 50 54 62 67 69 68 69 71 76 80 80 79 77 70 62 58 58 55 50 45 38 32 28 27 25 25 25 26 27 26 24 27 34 39 41 43 44 45
30 32 34 37 41 45 47 48 47 50 53 59 64 58 51 53 57 62 65 66 68 70 77 82 82 81 79 70 61 58 58 56 54 52 45 36 31 29 29 28 28 28 27 26 24 27 33 36 38 40 39 40
36 37 38 40 45 50 53 54 55 57 58 62 63 57 53 51 51 56 60 65 70 76 80 81 80 81 78 69 62 60 59 58 59 59 56 47 39 35 32 30 29 28 28 27 25 25 28 30 35 38 37 39
43 40 39 41 46 53 58 61 63 63 62 62 62 58 54 52 53 56 62 68 73 79 82 83 83 82 76 68 62 60 58 56 55 56 57 53 45 38 32 29 28 28 29 29 26 25 25 26 33 38 37 39
50 43 41 43 49 56 62 67 69 68 68 69 65 60 57 59 63 66 67 65 67 77 87 92 92 82 70 62 59 58 58 56 51 47 46 43 39 34 30 28 29 29 31 31 28 26 25 27 37 39 34 35
57 51 48 50 56 62 66 69 74 75 77 75 67 64 67 72 74 71 66 63 71 86 96 99 92 74 60 56 57 59 61 61 58 52 46 42 38 36 36 36 34 31 30 31 29 27 27 32 38 35 30 35
61 59 60 60 61 67 69 71 76 80 78 72 68 73 80 83 79 71 64 69 83 92 93 92 79 59 53 55 59 62 65 67 67 64 58 54 51 50 49 47 43 38 33 31 29 27 29 33 33 28 31 40
66 68 70 67 66 71 74 72 74 77 74 70 73 83 90 88 78 64 56 62 73 75 72 72 63 55 58 63 67 68 68 69 70 70 67 64 62 61 61 59 57 52 43 34 31 32 32 30 29 31 39 47
76 73 68 67 71 76 75 71 70 71 72 75 84 94 95 86 70 54 47 47 50 51 55 61 62 64 70 72 74 73 70 69 68 68 67 65 66 66 68 67 65 64 58 49 46 49 44 36 34 39 46 48
84 72 66 69 74 74 71 70 69 71 77 86 95 99 93 80 65 51 45 44 44 50 60 68 72 74 77 78 78 74 69 66 62 60 61 64 68 72 77 79 79 80 78 68 62 59 51 44 44 45 45 45
Wind_Speed
44 45 45 46 46 46 46 46 47 47 48 48 49 49 49 50 50 51 51 51 51 51 51 50 50 50 51 51 52 53 53 54 55 55 56 56 57 57 57 57 58 58 58 59 59 59 60 60 61 62 62 63
43 44 44 44 44 44 44 44 45 45 46 46 47 47 48 48 48 49 49 49 49 49 49 49 50 51 52 52 53 53 53 54 54 55 55 56 56 56 57 57 58 58 58 59 59 59 59 59 60 60 61 61
42 42 41 41 41 42 42 43 43 44 45 45 46 46 47 47 47 47 47 48 48 49 49 50 51 51 51 51 52 52 53 54 54 55 55 55 55 56 56 57 57 58 58 58 58 59 59 59 59 59 60 60
39 39 39 40 40 41 42 42 43 44 44 45 45 45 45 45 45 46 46 47 48 48 49 50 50 50 51 51 52 52 53 53 54 54 55 55 55 56 56 56 57 57 57 57 57 58 57 58 58 58 58 59
37 38 38 39 40 41 41 42 42 42 43 43 43 43 43 43 44 45 46 47 48 49 49 50 51 51 52 52 52 53 53 54 55 55 55 56 56 56 57 57 57 57 58 58 58 58 58 58 58 58 58 59
37 38 38 39 40 41 42 42 42 42 41 41 41 41 42 42 44 45 46 47 48 49 50 51 51 52 53 53 53 54 55 55 56 57 57 57 57 58 58 58 58 57 58 58 58 58 58 58 58 59 59 60
38 39 40 41 42 42 42 41 40 40 39 39 40 41 42 43 44 45 46 47 49 50 51 52 52 53 54 55 55 56 56 57 57 58 58 58 58 59 59 58 58 58 58 58 58 59 59 59 59 59 60 60
40 42 43 43 43 42 41 40 39 39 39 39 40 41 42 43 44 45 47 48 50 51 52 52 53 54 56 56 57 57 57 57 57 58 58 59 59 59 59 59 59 59 59 59 59 59 59 58 59 59 59 60
42 44 44 44 43 42 41 40 39 39 39 40 40 42 43 44 45 47 49 50 52 53 54 54 55 56 57 57 58 58 57 56 56 57 58 59 60 60 60 60 59 59 59 59 60 59 59 59 59 59 59 60
44 44 44 44 43 42 41 40 39 40 40 40 41 43 44 45 47 49 51 52 53 55 56 56 57 58 58 58 58 57 56 56 56 57 58 59 60 61 61 61 60 60 60 60 60 60 60 59 59 60 61 62
44 44 44 43 43 42 41 40 40 41 41 41 42 44 46 48 50 52 53 52 53 55 56 56 57 57 58 58 57 56 55 55 56 57 58 59 60 60 60 60 60 60 60 60 61 61 60 60 60 61 62 63
44 44 44 44 43 42 41 41 42 42 42 42 44 45 48 51 53 55 54 53 55 57 57 57 57 58 58 58 58 57 56 57 57 57 58 58 58 59 60 61 61 61 61 61 62 62 62 62 62 63 64 66
45 45 45 44 43 43 42 43 44 44 43 44 45 47 50 53 56 57 56 56 57 59 60 60 60 60 60 60 60 60 60 60 59 59 58 58 59 61 62 62 62 62 62 63 63 63 63 64 65 66 68 69
45 46 46 45 45 45 44 45 46 46 45 45 47 48 52 56 58 59 58 58 60 61 62 62 62 62 63 63 63 62 62 63 63 63 62 62 63 65 64 63 63 63 63 63 64 65 65 67 68 70 71 72
46 47 47 46 46 46 47 48 48 47 47 47 49 51 55 58 60 61 60 60 62 63 64 64 64 65 65 65 65 65 65 65 66 67 67 68 68 68 66 65 66 66 66 67 68 68 69 71 72 74 75 76
47 47 48 48 48 49 50 50 50 49 49 51 53 55 58 60 61 62 62 62 64 65 66 66 66 67 67 68 68 68 68 68 68 69 70 70 71 70 68 68 70 71 71 73 74 75 75 77 78 79 80 80
48 49 49 50 50 51 51 51 51 51 52 55 56 57 60 62 62 62 63 64 65 66 67 67 68 69 69 70 70 71 71 71 71 71 72 71 71 71 71 73 75 76 77 78 79 79 80 80 82 83 84 84
50 51 51 52 52 51 51 51 51 52 54 55 56 59 62 63 63 63 64 65 66 67 68 69 70 71 71 73 73 74 74 74 74 74 74 74 74 75 76 77 79 79 80 81 81 81 82 82 84 85 86 87
51 52 52 52 51 50 51 52 53 54 55 55 58 63 65 65 65 65 66 66 67 68 69 71 72 73 74 75 76 77 76 76 76 76 76 77 77 78 79 80 81 82 82 82 82 83 83 84 85 86 88 89
52 53 53 52 50 51 52 53 55 56 57 58 62 66 66 66 66 67 67 68 69 69 71 72 74 75 76 77 79 79 79 79 79 79 78 79 79 80 81 83 83 84 84 83 84 85 85 86 87 88 90 91
53 53 53 52 51 53 54 55 57 58 60 62 65 67 68 68 68 69 70 70 70 71 72 74 76 78 79 80 81 81 81 81 82 82 81 81 82 83 84 84 85 86 86 85 85 87 88 89 89 91 92 93
54 53 52 52 53 56 57 59 60 62 63 64 67 69 70 70 70 71 72 72 73 73 74 76 78 79 81 82 83 83 83 84 84 85 84 84 84 85 86 87 88 88 88 88 88 88 89 91 92 93 95 96
54 53 54 55 57 59 61 62 64 65 66 67 69 71 71 72 72 73 74 75 75 75 76 78 80 81 83 84 84 85 85 86 87 87 87 87 87 88 89 90 91 91 92 91 91 91 92 93 94 96 98 99
56 56 57 58 60 62 64 65 66 68 69 70 71 72 72 73 74 75 77 78 78 78 79 80 82 84 85 86 87 87 87 88 89 90 90 90 90 91 92 93 94 95 95 95 94 94 95 96 97 99 102 102
59 59 60 61 63 65 66 68 69 70 71 71 72 73 74 75 76 77 78 79 80 80 81 83 85 86 88 89 89 89 90 91 92 92 93 93 93 94 94 95 97 98 99 99 98 98 98 99 100 102 104 106
63 63 63 64 65 66 68 69 71 73 74 74 74 76 77 78 78 79 80 81 82 83 84 85 87 89 91 91 91 92 93 94 95 95 96 96 96 96 97 98 99 101 102 103 102 103 102 101 102 105 107 109
66 67 67 67 67 67 69 71 73 74 76 76 77 79 80 81 81 81 83 84 84 85 87 88 90 92 94 94 95 96 97 98 98 99 99 99 99 100 101 101 102 103 104 106 106 106 105 104 105 106 108 110
69 69 69 69 68 69 70 72 74 75 77 78 79 81 82 83 83 84 86 87 87 88 89 91 93 94 95 96 98 100 100 101 101 102 103 103 104 104 105 104 105 105 106 108 110 110 109 108 109 109 110 112
70 71 71 70 70 72 73 74 76 77 78 80 81 83 84 85 86 87 89 89 90 90 91 93 94 96 97 99 101 102 104 104 105 105 106 107 108 108 108 108 108 109 109 110 112 114 114 114 115 115 116 117
71 72 72 72 72 74 76 78 79 80 80 81 83 85 86 87 88 90 92 92 92 93 93 95 96 98 100 101 103 105 106 107 108 109 110 111 111 111 111 111 111 112 113 114 116 118 120 121 123 122 122 122
73 73 73 73 75 77 79 81 82 82 82 83 85 87 89 90 91 93 95 95 95 95 96 97 99 100 102 104 106 107 109 110 111 112 112 113 113 113 114 115 115 115 117 118 120 121 123 125 127 128 128 127
Wind_Direction
290 292 293 294 295 296 296 297 297 297 297 298 298 299 300 301 301 302 303 303 303 303 303 303 303 303 303 303 303 303 302 302 301 301 299 298 297 296 295 294 294 293 293 293 292 292 291 291 290 290 289 289
294 295 296 297 298 298 299 299 300 300 301 302 303 303 304 305 305 305 304 304 304 304 304 305 305 305 305 305 305 305 304 304 303 302 301 301 300 300 300 299 299 299 298 298 297 297 296 296 295 295 294 294
298 299 300 301 302 302 302 302 303 303 303 304 304 305 305 305 305 305 305 306 306 307 307 307 307 308 308 308 308 308 307 307 306 306 305 305 305 305 304 304 303 303 302 302 302 301 301 301 301 301 301 301
303 304 305 305 305 305 305 304 304 304 305 305 305 305 305 306 307 308 309 310 311 311 311 311 311 311 310 310 310 309 309 308 308 308 307 307 306 306 305 305 304 304 304 304 303 303 303 303 304 304 304 304
308 308 309 308 308 307 307 307 307 307 307 307 308 308 310 311 313 314 315 316 315 315 314 313 312 312 311 310 309 309 308 308 308 308 307 307 306 306 306 305 305 305 304 304 304 304 304 304 304 305 305 306
310 310 310 310 310 309 309 309 309 309 309 310 312 314 316 317 319 320 319 318 317 315 314 313 312 311 310 309 308 308 308 308 308 308 308 308 308 307 307 307 307 306 306 306 306 305 305 305 305 306 306 307
311 312 313 312 311 310 309 309 310 311 313 315 317 320 321 322 322 321 319 317 315 314 314 313 313 312 310 310 309 309 309 309 309 309 309 309 309 309 309 309 308 308 307 307 307 306 305 305 305 306 306 307
314 315 314 312 310 309 309 310 312 315 317 319 321 323 323 322 320 319 318 318 317 317 317 317 316 314 313 312 311 310 309 309 309 309 309 310 310 310 310 310 309 309 308 308 307 306 305 305 305 305 306 306
315 314 312 310 309 309 311 313 316 318 320 321 323 323 321 320 320 321 321 321 321 320 320 319 318 317 316 314 312 311 310 310 309 309 310 310 310 310 310 310 309 309 308 307 307 305 304 304 304 305 305 306
314 312 310 309 310 311 313 315 316 318 320 321 321 321 321 322 323 323 323 322 323 323 323 322 320 319 317 316 314 312 311 310 310 310 310 310 310 310 309 309 308 308 307 307 306 305 304 304 304 304 305 305
312 311 310 310 311 312 313 314 316 318 319 318 319 320 321 322 323 323 322 323 325 325 325 324 323 321 319 317 315 313 312 312 311 311 311 310 310 310 310 310 309 308 308 307 306 305 305 304 304 304 305 305
311 310 310 310 311 312 313 315 317 317 316 316 316 318 319 321 322 322 321 322 323 324 324 324 324 323 322 320 318 316 313 313 312 312 311 311 311 311 311 310 309 308 308 307 307 306 306 305 305 305 305 305
310 310 310 310 310 311 312 314 316 315 314 313 313 315 317 320 321 321 320 320 321 322 323 323 323 323 323 322 322 319 315 312 312 311 310 310 310 311 311 310 309 308 308 308 307 307 307 306 306 306 306 306
310 310 310 310 310 310 311 312 313 313 311 310 310 312 315 318 320 320 319 319 320 321 321 322 322 323 323 323 323 322 317 313 311 310 308 308 309 310 309 308 308 308 308 308 307 307 307 307 307 307 307 308
309 310 310 309 309 309 309 310 310 309 308 308 309 311 314 317 318 319 319 319 319 320 321 321 321 321 322 322 323 322 319 316 313 309 307 306 306 307 306 306 307 307 307 307 308 308 308 308 309 309 309 309
309 310 310 310 309 309 309 309 309 307 307 309 310 312 315 316 317 318 318 318 318 319 319 320 320 320 320 321 322 321 319 317 314 312 309 307 306 305 305 304 305 306 306 307 307 308 308 309 309 309 309 309
310 311 311 310 310 310 309 309 308 308 309 310 312 315 316 317 317 318 317 317 317 317 318 318 318 318 319 319 320 320 319 317 315 312 311 309 308 306 305 305 305 305 305 306 306 307 308 309 308 308 309 309
310 310 310 310 310 310 309 310 310 310 310 311 313 316 317 317 318 317 316 316 316 316 317 317 317 317 317 317 318 318 317 316 314 312 310 309 308 307 306 305 305 305 305 305 306 307 308 308 307 307 308 308
309 309 309 309 309 309 309 310 311 311 310 311 313 316 317 318 317 316 315 315 315 315 316 316 316 316 315 316 316 316 315 314 313 312 310 309 308 307 306 306 306 306 306 306 306 306 307 307 307 307 307 307
308 308 308 308 308 309 310 311 311 310 309 309 313 316 317 317 317 315 314 314 314 314 315 315 315 314 314 314 314 314 314 313 312 311 310 308 307 306 305 305 305 305 305 306 306 306 306 306 307 307 307 307
308 309 309 309 309 309 309 310 310 310 309 309 312 316 316 316 316 314 313 313 313 313 313 313 313 313 313 313 313 313 313 312 311 310 309 308 307 306 305 305 305 304 304 305 305 306 306 307 307 307 307 306
310 311 311 311 310 310 309 310 311 311 311 310 312 314 315 315 314 314 313 312 312 312 311 312 312 312 311 311 312 312 311 310 310 309 308 307 306 306 305 304 304 304 304 304 305 306 306 307 307 307 307 307
312 312 313 312 312 311 311 311 312 312 312 311 312 313 314 314 314 313 313 312 311 310 310 311 311 311 310 310 311 311 310 309 309 308 307 306 306 305 305 304 303 303 303 303 304 305 306 306 307 308 307 307
312 312 312 313 313 313 313 312 312 312 312 311 312 312 313 313 313 313 312 311 311 310 309 310 310 310 309 310 310 310 310 309 308 307 306 305 304 304 304 304 303 303 302 302 303 304 304 305 307 307 307 307
311 312 313 313 313 313 313 313 312 311 311 311 311 311 312 313 313 312 311 311 310 309 309 309 309 309 309 309 309 309 309 309 307 306 305 304 303 303 303 303 303 302 302 302 302 302 303 304 305 306 306 306
310 311 312 313 314 313 312 312 312 311 311 311 311 311 312 312 312 311 311 310 310 309 308 308 308 309 309 309 309 310 309 309 307 306 305 304 303 303 303 303 302 302 302 301 301 301 302 303 303 304 305 305
309 311 312 313 313 312 311 310 310 310 310 310 310 311 312 312 312 311 311 311 310 309 308 308 308 308 309 309 310 310 310 309 307 306 305 304 303 303 303 303 302 302 302 302 301 301 301 302 301 302 303 303
309 310 310 311 311 311 310 309 309 309 308 308 309 310 311 311 312 312 312 311 310 309 309 308 308 309 309 309 310 310 309 308 307 306 305 304 303 303 302 302 302 302 302 302 301 301 301 301 301 301 302 302
308 309 309 310 310 310 309 309 309 308 308 308 308 309 310 311 311 312 312 311 310 309 309 308 308 309 309 309 309 309 309 308 307 305 304 304 303 303 302 302 302 302 302 302 302 302 301 301 301 301 302 301
310 309 309 309 309 309 309 309 309 308 308 308 308 309 309 310 311 312 312 312 311 310 309 308 308 308 308 308 308 308 308 307 306 305 304 304 303 302 302 302 302 302 302 302 302 302 301 301 301 301 301 301
310 309 309 309 309 309 309 309 309 308 308 308 308 308 308 309 310 311 312 312 311 310 309 308 308 308 307 307 307 308 307 307 306 305 304 304 303 303 302 302 302 302 302 302 301 301 300 300 301 301 301 301